owner,sensor,date,latitude,longitude,vertical_datum,wind_speed,wind_to_direction,wind_speed_of_gust,qcFlag 
CenGOOS,ioos:station:wmo:42067:1,2016-02-01T11:40Z,30.0430,-88.6490,5.0,5.2,193.9,5.8,'1111122,1111122,1111122' 
CenGOOS,ioos:station:wmo:42067:1,2016-02-01T14:40Z,30.0430,-88.6490,5.0,4.1,200.5,4.6,'1111122,1111122,1111122' 
CenGOOS,ioos:station:wmo:42067:1,2016-02-01T17:40Z,30.0430,-88.6490,5.0,0.5,325.5,1.4,'1111122,1111122,1111122' 
CenGOOS,ioos:station:wmo:42067:1,2016-02-01T20:40Z,30.0430,-88.6490,5.0,3.1,172.8,3.7,'1111122,1111122,1111122' 
CenGOOS,ioos:station:wmo:42067:1,2016-02-02T02:40Z,30.0430,-88.6490,5.0,4.9,140.7,5.5,'1111122,1111122,1111122' 
CenGOOS,ioos:station:wmo:42067:1,2016-02-02T05:40Z,30.0430,-88.6490,5.0,6.0,145.1,6.8,'1111122,1111122,1111122' 
CenGOOS,ioos:station:wmo:42067:1,2016-02-02T08:40Z,30.0430,-88.6490,5.0,6.2,149.2,7.2,'1111122,1111122,1111122' 
CenGOOS,ioos:station:wmo:42067:1,2016-02-02T14:40Z,30.0430,-88.6490,5.0,4.9,131.7,5.6,'1111122,1111122,1111122' 
CenGOOS,ioos:station:wmo:42067:1,2016-02-02T17:40Z,30.0430,-88.6490,5.0,6.3,162.9,7.3,'1111122,1111122,1111122' 
CenGOOS,ioos:station:wmo:42067:1,2016-02-02T20:40Z,30.0430,-88.6490,5.0,7.7,160.1,9.0,'1111122,1111122,1111122' 
CenGOOS,ioos:station:wmo:42067:1,2016-02-02T23:40Z,30.0430,-88.6490,5.0,7.5,165.2,8.8,'1111122,1111122,1111122' 
CenGOOS,ioos:station:wmo:42067:1,2016-02-03T02:40Z,30.0430,-88.6490,5.0,7.3,171.4,8.2,'1111122,1111122,1111122' 
CenGOOS,ioos:station:wmo:42067:1,2016-02-03T05:40Z,30.0430,-88.6490,5.0,7.5,174.8,8.9,'1111122,1111122,1111122' 
CenGOOS,ioos:station:wmo:42067:1,2016-02-03T08:40Z,30.0430,-88.6490,5.0,5.2,184.3,6.3,'1111122,1111122,1111122' 
CenGOOS,ioos:station:wmo:42067:1,2016-02-03T11:40Z,30.0430,-88.6490,5.0,10.7,351.0,12.6,'1111122,1111122,1111122' 
CenGOOS,ioos:station:wmo:42067:1,2016-02-03T14:40Z,30.0430,-88.6490,5.0,7.7,10.4,9.2,'1111122,1111122,1111122' 
CenGOOS,ioos:station:wmo:42067:1,2016-02-03T20:40Z,30.0430,-88.6490,5.0,1.5,333.4,2.3,'1111122,1111122,1111122' 
CenGOOS,ioos:station:wmo:42067:1,2016-02-03T23:40Z,30.0430,-88.6490,5.0,5.0,329.8,6.8,'1111122,1111122,1111122' 
CenGOOS,ioos:station:wmo:42067:1,2016-02-04T05:40Z,30.0430,-88.6490,5.0,9.8,339.3,12.0,'1111122,1111122,1111122' 
CenGOOS,ioos:station:wmo:42067:1,2016-02-04T08:40Z,30.0430,-88.6490,5.0,10.0,352.6,11.9,'1111122,1111122,1111122' 
CenGOOS,ioos:station:wmo:42067:1,2016-02-04T11:40Z,30.0430,-88.6490,5.0,10.7,10.7,13.2,'1111122,1111122,1111122' 
CenGOOS,ioos:station:wmo:42067:1,2016-02-04T14:40Z,30.0430,-88.6490,5.0,11.4,4.6,13.3,'1111122,1111122,1111122' 
CenGOOS,ioos:station:wmo:42067:1,2016-02-04T17:40Z,30.0430,-88.6490,5.0,8.0,326.8,9.9,'1111122,1111122,1111122' 
CenGOOS,ioos:station:wmo:42067:1,2016-02-04T20:40Z,30.0430,-88.6490,5.0,9.4,319.3,12.3,'1111122,1111122,1111122' 
CenGOOS,ioos:station:wmo:42067:1,2016-02-04T23:40Z,30.0430,-88.6490,5.0,11.7,320.5,15.4,'1111122,1111122,1111122' 
CenGOOS,ioos:station:wmo:42067:1,2016-02-05T02:40Z,30.0430,-88.6490,5.0,11.7,335.0,14.3,'1111122,1111122,1111122' 
CenGOOS,ioos:station:wmo:42067:1,2016-02-05T05:40Z,30.0430,-88.6490,5.0,10.0,354.0,11.9,'1111122,1111122,1111122' 
CenGOOS,ioos:station:wmo:42067:1,2016-02-05T08:40Z,30.0430,-88.6490,5.0,9.8,21.0,12.4,'1111122,1111122,1111122' 
CenGOOS,ioos:station:wmo:42067:1,2016-02-05T11:40Z,30.0430,-88.6490,5.0,10.2,28.5,12.1,'1111122,1111122,1111122' 
CenGOOS,ioos:station:wmo:42067:1,2016-02-05T14:40Z,30.0430,-88.6490,5.0,8.4,23.9,10.7,'1111122,1111122,1111122' 
CenGOOS,ioos:station:wmo:42067:1,2016-02-05T17:40Z,30.0430,-88.6490,5.0,5.2,33.2,7.9,'1111122,1111122,1111122' 
CenGOOS,ioos:station:wmo:42067:1,2016-02-05T20:40Z,30.0430,-88.6490,5.0,1.6,353.1,2.7,'1111122,1111122,1111122' 
CenGOOS,ioos:station:wmo:42067:1,2016-02-05T23:40Z,30.0430,-88.6490,5.0,2.3,278.1,3.5,'1111122,1111122,1111122' 
CenGOOS,ioos:station:wmo:42067:1,2016-02-06T02:40Z,30.0430,-88.6490,5.0,4.7,26.7,6.6,'1111122,1111122,1111122' 
CenGOOS,ioos:station:wmo:42067:1,2016-02-06T05:40Z,30.0430,-88.6490,5.0,7.3,39.9,9.1,'1111122,1111122,1111122' 
CenGOOS,ioos:station:wmo:42067:1,2016-02-06T11:40Z,30.0430,-88.6490,5.0,5.1,7.9,6.4,'1111122,1111122,1111122' 
CenGOOS,ioos:station:wmo:42067:1,2016-02-06T14:40Z,30.0430,-88.6490,5.0,5.7,35.0,6.9,'1111122,1111122,1111122' 
CenGOOS,ioos:station:wmo:42067:1,2016-02-06T17:40Z,30.0430,-88.6490,5.0,3.8,62.4,5.6,'1111122,1111122,1111122' 
CenGOOS,ioos:station:wmo:42067:1,2016-02-06T20:40Z,30.0430,-88.6490,5.0,0.7,144.6,1.6,'1111122,1111122,1111122' 
CenGOOS,ioos:station:wmo:42067:1,2016-02-06T23:40Z,30.0430,-88.6490,5.0,1.7,269.6,2.7,'1111122,1111122,1111122' 
CenGOOS,ioos:station:wmo:42067:1,2016-02-07T02:40Z,30.0430,-88.6490,5.0,5.4,311.6,7.0,'1111122,1111122,1111122' 
CenGOOS,ioos:station:wmo:42067:1,2016-02-07T05:40Z,30.0430,-88.6490,5.0,6.4,8.2,7.9,'1111122,1111122,1111122' 
CenGOOS,ioos:station:wmo:42067:1,2016-02-07T08:40Z,30.0430,-88.6490,5.0,8.2,0.4,9.7,'1111122,1111122,1111122' 
CenGOOS,ioos:station:wmo:42067:1,2016-02-07T11:40Z,30.0430,-88.6490,5.0,6.0,348.8,7.2,'1111122,1111122,1111122' 
CenGOOS,ioos:station:wmo:42067:1,2016-02-07T14:40Z,30.0430,-88.6490,5.0,3.8,15.0,4.9,'1111122,1111122,1111122' 
CenGOOS,ioos:station:wmo:42067:1,2016-02-07T17:40Z,30.0430,-88.6490,5.0,3.3,355.8,5.1,'1111122,1111122,1111122' 
CenGOOS,ioos:station:wmo:42067:1,2016-02-07T20:40Z,30.0430,-88.6490,5.0,3.5,228.5,4.4,'1111122,1111122,1111122' 
CenGOOS,ioos:station:wmo:42067:1,2016-02-07T23:40Z,30.0430,-88.6490,5.0,6.4,241.3,8.2,'1111122,1111122,1111122' 
CenGOOS,ioos:station:wmo:42067:1,2016-02-08T02:40Z,30.0430,-88.6490,5.0,9.7,242.1,12.0,'1111122,1111122,1111122' 
CenGOOS,ioos:station:wmo:42067:1,2016-02-08T05:40Z,30.0430,-88.6490,5.0,10.9,256.3,13.1,'1111122,1111122,1111122' 
CenGOOS,ioos:station:wmo:42067:1,2016-02-08T08:40Z,30.0430,-88.6490,5.0,9.8,273.7,11.8,'1111122,1111122,1111122' 
CenGOOS,ioos:station:wmo:42067:1,2016-02-08T11:40Z,30.0430,-88.6490,5.0,9.6,265.8,11.2,'1111122,1111122,1111122' 
CenGOOS,ioos:station:wmo:42067:1,2016-02-08T14:40Z,30.0430,-88.6490,5.0,10.9,257.7,13.0,'1111122,1111122,1111122' 
CenGOOS,ioos:station:wmo:42067:1,2016-02-08T20:40Z,30.0430,-88.6490,5.0,11.3,288.1,13.9,'1111122,1111122,1111122' 
CenGOOS,ioos:station:wmo:42067:1,2016-02-08T23:40Z,30.0430,-88.6490,5.0,12.9,296.6,15.8,'1111122,1111122,1111122' 
CenGOOS,ioos:station:wmo:42067:1,2016-02-09T05:40Z,30.0430,-88.6490,5.0,12.3,292.2,15.4,'1111122,1111122,1111122' 
CenGOOS,ioos:station:wmo:42067:1,2016-02-09T08:40Z,30.0430,-88.6490,5.0,10.2,290.6,12.4,'1111122,1111122,1111122' 
CenGOOS,ioos:station:wmo:42067:1,2016-02-09T11:40Z,30.0430,-88.6490,5.0,12.2,286.2,14.6,'1111122,1111122,1111122' 
CenGOOS,ioos:station:wmo:42067:1,2016-02-09T14:40Z,30.0430,-88.6490,5.0,11.9,296.2,15.2,'1111122,1111122,1111122' 
CenGOOS,ioos:station:wmo:42067:1,2016-02-09T17:40Z,30.0430,-88.6490,5.0,10.4,284.0,12.9,'1111122,1111122,1111122' 
CenGOOS,ioos:station:wmo:42067:1,2016-02-09T20:40Z,30.0430,-88.6490,5.0,11.2,261.1,13.8,'1111122,1111122,1111122' 
CenGOOS,ioos:station:wmo:42067:1,2016-02-10T02:40Z,30.0430,-88.6490,5.0,8.2,296.8,10.0,'1111122,1111122,1111122' 
CenGOOS,ioos:station:wmo:42067:1,2016-02-10T05:40Z,30.0430,-88.6490,5.0,9.3,301.2,11.3,'1111122,1111122,1111122' 
CenGOOS,ioos:station:wmo:42067:1,2016-02-10T08:40Z,30.0430,-88.6490,5.0,9.2,338.7,11.1,'1111122,1111122,1111122' 
CenGOOS,ioos:station:wmo:42067:1,2016-02-10T11:40Z,30.0430,-88.6490,5.0,7.8,359.3,9.6,'1111122,1111122,1111122' 
CenGOOS,ioos:station:wmo:42067:1,2016-02-10T14:40Z,30.0430,-88.6490,5.0,5.9,359.6,7.9,'1111122,1111122,1111122' 
CenGOOS,ioos:station:wmo:42067:1,2016-02-10T17:40Z,30.0430,-88.6490,5.0,3.9,291.7,6.6,'1111122,1111122,1111122' 
CenGOOS,ioos:station:wmo:42067:1,2016-02-10T23:40Z,30.0430,-88.6490,5.0,7.2,244.5,8.5,'1111122,1111122,1111122' 
CenGOOS,ioos:station:wmo:42067:1,2016-02-11T02:40Z,30.0430,-88.6490,5.0,8.4,232.1,10.5,'1111122,1111122,1111122' 
CenGOOS,ioos:station:wmo:42067:1,2016-02-11T05:40Z,30.0430,-88.6490,5.0,9.4,241.1,11.6,'1111122,1111122,1111122' 
CenGOOS,ioos:station:wmo:42067:1,2016-02-11T08:40Z,30.0430,-88.6490,5.0,8.8,249.0,10.3,'1111122,1111122,1111122' 
CenGOOS,ioos:station:wmo:42067:1,2016-02-11T14:40Z,30.0430,-88.6490,5.0,6.3,225.0,7.2,'1111122,1111122,1111122' 
CenGOOS,ioos:station:wmo:42067:1,2016-02-11T17:40Z,30.0430,-88.6490,5.0,6.7,229.2,8.0,'1111122,1111122,1111122' 
CenGOOS,ioos:station:wmo:42067:1,2016-02-11T23:40Z,30.0430,-88.6490,5.0,9.3,230.0,11.1,'1111122,1111122,1111122' 
CenGOOS,ioos:station:wmo:42067:1,2016-02-12T02:40Z,30.0430,-88.6490,5.0,9.8,236.1,11.7,'1111122,1111122,1111122' 
CenGOOS,ioos:station:wmo:42067:1,2016-02-12T05:40Z,30.0430,-88.6490,5.0,9.5,236.1,10.9,'1111122,1111122,1111122' 
CenGOOS,ioos:station:wmo:42067:1,2016-02-12T08:40Z,30.0430,-88.6490,5.0,8.2,241.8,9.8,'1111122,1111122,1111122' 
CenGOOS,ioos:station:wmo:42067:1,2016-02-12T11:40Z,30.0430,-88.6490,5.0,6.0,251.1,7.2,'1111122,1111122,1111122' 
CenGOOS,ioos:station:wmo:42067:1,2016-02-12T17:40Z,30.0430,-88.6490,5.0,4.6,260.8,5.4,'1111122,1111122,1111122' 
CenGOOS,ioos:station:wmo:42067:1,2016-02-12T20:40Z,30.0430,-88.6490,5.0,7.2,264.5,8.5,'1111122,1111122,1111122' 
CenGOOS,ioos:station:wmo:42067:1,2016-02-13T02:40Z,30.0430,-88.6490,5.0,4.8,288.0,5.5,'1111122,1111122,1111122' 
CenGOOS,ioos:station:wmo:42067:1,2016-02-13T05:40Z,30.0430,-88.6490,5.0,6.9,349.2,8.7,'1111122,1111122,1111122' 
CenGOOS,ioos:station:wmo:42067:1,2016-02-13T08:40Z,30.0430,-88.6490,5.0,10.5,1.9,13.2,'1111122,1111122,1111122' 
CenGOOS,ioos:station:wmo:42067:1,2016-02-13T11:40Z,30.0430,-88.6490,5.0,11.7,29.5,13.4,'1111122,1111122,1111122' 
CenGOOS,ioos:station:wmo:42067:1,2016-02-13T14:40Z,30.0430,-88.6490,5.0,8.8,39.8,10.7,'1111122,1111122,1111122' 
CenGOOS,ioos:station:wmo:42067:1,2016-02-13T17:40Z,30.0430,-88.6490,5.0,5.4,1.6,7.4,'1111122,1111122,1111122' 
CenGOOS,ioos:station:wmo:42067:1,2016-02-13T20:40Z,30.0430,-88.6490,5.0,2.0,44.8,3.3,'1111122,1111122,1111122' 
CenGOOS,ioos:station:wmo:42067:1,2016-02-13T23:40Z,30.0430,-88.6490,5.0,0.8,146.3,1.3,'1111122,1111122,1111122' 
CenGOOS,ioos:station:wmo:42067:1,2016-02-14T02:40Z,30.0430,-88.6490,5.0,5.5,54.7,6.6,'1111122,1111122,1111122' 
CenGOOS,ioos:station:wmo:42067:1,2016-02-14T05:40Z,30.0430,-88.6490,5.0,7.6,60.4,9.0,'1111122,1111122,1111122' 
CenGOOS,ioos:station:wmo:42067:1,2016-02-14T08:40Z,30.0430,-88.6490,5.0,7.5,85.6,9.2,'1111122,1111122,1111122' 
CenGOOS,ioos:station:wmo:42067:1,2016-02-14T14:40Z,30.0430,-88.6490,5.0,8.1,128.3,9.8,'1111122,1111122,1111122' 
CenGOOS,ioos:station:wmo:42067:1,2016-02-14T17:40Z,30.0430,-88.6490,5.0,7.5,138.5,9.1,'1111122,1111122,1111122' 
CenGOOS,ioos:station:wmo:42067:1,2016-02-14T20:40Z,30.0430,-88.6490,5.0,4.1,149.9,5.1,'1111122,1111122,1111122' 
CenGOOS,ioos:station:wmo:42067:1,2016-02-14T23:40Z,30.0430,-88.6490,5.0,6.1,134.3,7.1,'1111122,1111122,1111122' 
CenGOOS,ioos:station:wmo:42067:1,2016-02-15T02:40Z,30.0430,-88.6490,5.0,6.2,133.6,7.5,'1111122,1111122,1111122' 
CenGOOS,ioos:station:wmo:42067:1,2016-02-15T05:40Z,30.0430,-88.6490,5.0,7.7,143.0,9.3,'1111122,1111122,1111122' 
CenGOOS,ioos:station:wmo:42067:1,2016-02-15T08:40Z,30.0430,-88.6490,5.0,6.8,155.5,8.0,'1111122,1111122,1111122' 
CenGOOS,ioos:station:wmo:42067:1,2016-02-15T11:40Z,30.0430,-88.6490,5.0,8.0,159.5,9.2,'1111122,1111122,1111122' 
CenGOOS,ioos:station:wmo:42067:1,2016-02-15T14:40Z,30.0430,-88.6490,5.0,6.5,160.4,7.7,'1111122,1111122,1111122' 
CenGOOS,ioos:station:wmo:42067:1,2016-02-15T17:40Z,30.0430,-88.6490,5.0,7.6,169.2,8.8,'1111122,1111122,1111122' 
CenGOOS,ioos:station:wmo:42067:1,2016-02-15T20:40Z,30.0430,-88.6490,5.0,9.0,193.3,10.4,'1111122,1111122,1111122' 
CenGOOS,ioos:station:wmo:42067:1,2016-02-15T23:40Z,30.0430,-88.6490,5.0,7.2,318.0,9.1,'1111122,1111122,1111122' 
CenGOOS,ioos:station:wmo:42067:1,2016-02-16T02:40Z,30.0430,-88.6490,5.0,5.2,276.5,6.6,'1111122,1111122,1111122' 
CenGOOS,ioos:station:wmo:42067:1,2016-02-16T05:40Z,30.0430,-88.6490,5.0,9.3,319.4,12.0,'1111122,1111122,1111122' 
CenGOOS,ioos:station:wmo:42067:1,2016-02-16T08:40Z,30.0430,-88.6490,5.0,9.2,339.9,11.1,'1111122,1111122,1111122' 
CenGOOS,ioos:station:wmo:42067:1,2016-02-16T11:40Z,30.0430,-88.6490,5.0,3.6,25.3,4.9,'1111122,1111122,1111122' 
CenGOOS,ioos:station:wmo:42067:1,2016-02-16T14:40Z,30.0430,-88.6490,5.0,1.7,67.3,2.5,'1111122,1111122,1111122' 
CenGOOS,ioos:station:wmo:42067:1,2016-02-16T17:40Z,30.0430,-88.6490,5.0,5.2,193.7,6.3,'1111122,1111122,1111122' 
CenGOOS,ioos:station:wmo:42067:1,2016-02-16T20:40Z,30.0430,-88.6490,5.0,6.4,238.2,7.5,'1111122,1111122,1111122' 
CenGOOS,ioos:station:wmo:42067:1,2016-02-16T23:40Z,30.0430,-88.6490,5.0,5.8,229.3,7.1,'1111122,1111122,1111122' 
CenGOOS,ioos:station:wmo:42067:1,2016-02-17T02:40Z,30.0430,-88.6490,5.0,8.1,234.7,9.3,'1111122,1111122,1111122' 
CenGOOS,ioos:station:wmo:42067:1,2016-02-17T05:40Z,30.0430,-88.6490,5.0,7.3,245.8,9.1,'1111122,1111122,1111122' 
CenGOOS,ioos:station:wmo:42067:1,2016-02-17T08:40Z,30.0430,-88.6490,5.0,6.8,294.0,8.3,'1111122,1111122,1111122' 
CenGOOS,ioos:station:wmo:42067:1,2016-02-17T11:40Z,30.0430,-88.6490,5.0,9.3,17.2,11.2,'1111122,1111122,1111122' 
CenGOOS,ioos:station:wmo:42067:1,2016-02-17T14:40Z,30.0430,-88.6490,5.0,7.5,21.8,8.8,'1111122,1111122,1111122' 
CenGOOS,ioos:station:wmo:42067:1,2016-02-17T17:40Z,30.0430,-88.6490,5.0,5.4,358.8,6.6,'1111122,1111122,1111122' 
CenGOOS,ioos:station:wmo:42067:1,2016-02-17T20:40Z,30.0430,-88.6490,5.0,1.8,259.2,2.6,'1111122,1111122,1111122' 
CenGOOS,ioos:station:wmo:42067:1,2016-02-17T23:40Z,30.0430,-88.6490,5.0,2.5,283.2,3.2,'1111122,1111122,1111122' 
CenGOOS,ioos:station:wmo:42067:1,2016-02-18T02:40Z,30.0430,-88.6490,5.0,5.0,22.2,6.8,'1111122,1111122,1111122' 
CenGOOS,ioos:station:wmo:42067:1,2016-02-18T05:40Z,30.0430,-88.6490,5.0,7.8,51.2,9.0,'1111122,1111122,1111122' 
CenGOOS,ioos:station:wmo:42067:1,2016-02-18T08:40Z,30.0430,-88.6490,5.0,6.6,67.9,8.2,'1111122,1111122,1111122' 
CenGOOS,ioos:station:wmo:42067:1,2016-02-18T11:40Z,30.0430,-88.6490,5.0,7.2,95.8,8.3,'1111122,1111122,1111122' 
CenGOOS,ioos:station:wmo:42067:1,2016-02-18T14:40Z,30.0430,-88.6490,5.0,6.7,87.4,7.9,'1111122,1111122,1111122' 
CenGOOS,ioos:station:wmo:42067:1,2016-02-18T17:40Z,30.0430,-88.6490,5.0,6.6,85.5,7.7,'1111122,1111122,1111122' 
CenGOOS,ioos:station:wmo:42067:1,2016-02-18T23:40Z,30.0430,-88.6490,5.0,4.9,132.2,5.7,'1111122,1111122,1111122' 
CenGOOS,ioos:station:wmo:42067:1,2016-02-19T02:44Z,30.0430,-88.6490,5.0,6.8,148.2,8.1,'1111122,1111122,1111122' 
CenGOOS,ioos:station:wmo:42067:1,2016-02-19T05:40Z,30.0430,-88.6490,5.0,7.8,152.8,9.4,'1111122,1111122,1111122' 
CenGOOS,ioos:station:wmo:42067:1,2016-02-19T08:40Z,30.0430,-88.6490,5.0,6.9,152.0,8.4,'1111122,1111122,1111122' 
CenGOOS,ioos:station:wmo:42067:1,2016-02-19T11:40Z,30.0430,-88.6490,5.0,5.6,151.1,6.6,'1111122,1111122,1111122' 
CenGOOS,ioos:station:wmo:42067:1,2016-02-19T17:40Z,30.0430,-88.6490,5.0,4.3,140.8,5.0,'1111122,1111122,1111122' 
CenGOOS,ioos:station:wmo:42067:1,2016-02-19T20:40Z,30.0430,-88.6490,5.0,4.0,109.6,4.6,'1111122,1111122,1111122' 
CenGOOS,ioos:station:wmo:42067:1,2016-02-19T23:40Z,30.0430,-88.6490,5.0,5.5,152.4,6.5,'1111122,1111122,1111122' 
CenGOOS,ioos:station:wmo:42067:1,2016-02-20T02:40Z,30.0430,-88.6490,5.0,5.2,152.9,6.3,'1111122,1111122,1111122' 
CenGOOS,ioos:station:wmo:42067:1,2016-02-20T05:40Z,30.0430,-88.6490,5.0,5.1,160.5,6.1,'1111122,1111122,1111122' 
CenGOOS,ioos:station:wmo:42067:1,2016-02-20T08:40Z,30.0430,-88.6490,5.0,3.2,162.0,4.3,'1111122,1111122,1111122' 
CenGOOS,ioos:station:wmo:42067:1,2016-02-20T11:40Z,30.0430,-88.6490,5.0,1.4,137.4,2.0,'1111122,1111122,1111122' 
CenGOOS,ioos:station:wmo:42067:1,2016-02-20T14:40Z,30.0430,-88.6490,5.0,3.6,149.8,4.4,'1111122,1111122,1111122' 
CenGOOS,ioos:station:wmo:42067:1,2016-02-20T17:40Z,30.0430,-88.6490,5.0,3.3,153.2,3.8,'1111122,1111122,1111122' 
CenGOOS,ioos:station:wmo:42067:1,2016-02-20T20:40Z,30.0430,-88.6490,5.0,3.8,145.5,4.5,'1111122,1111122,1111122' 
CenGOOS,ioos:station:wmo:42067:1,2016-02-20T23:40Z,30.0430,-88.6490,5.0,5.2,142.3,5.9,'1111122,1111122,1111122' 
CenGOOS,ioos:station:wmo:42067:1,2016-02-21T02:40Z,30.0430,-88.6490,5.0,4.3,144.2,5.3,'1111122,1111122,1111122' 
CenGOOS,ioos:station:wmo:42067:1,2016-02-21T05:40Z,30.0430,-88.6490,5.0,6.4,163.1,7.7,'1111122,1111122,1111122' 
CenGOOS,ioos:station:wmo:42067:1,2016-02-21T08:40Z,30.0430,-88.6490,5.0,4.7,172.8,5.7,'1111122,1111122,1111122' 
CenGOOS,ioos:station:wmo:42067:1,2016-02-21T11:40Z,30.0430,-88.6490,5.0,1.3,159.6,2.0,'1111122,1111122,1111122' 
CenGOOS,ioos:station:wmo:42067:1,2016-02-21T14:40Z,30.0430,-88.6490,5.0,2.8,181.4,3.5,'1111122,1111122,1111122' 
CenGOOS,ioos:station:wmo:42067:1,2016-02-21T17:40Z,30.0430,-88.6490,5.0,3.4,180.1,3.9,'1111122,1111122,1111122' 
CenGOOS,ioos:station:wmo:42067:1,2016-02-21T20:40Z,30.0430,-88.6490,5.0,2.8,184.6,3.3,'1111122,1111122,1111122' 
CenGOOS,ioos:station:wmo:42067:1,2016-02-21T23:40Z,30.0430,-88.6490,5.0,1.6,142.7,1.8,'1111122,1111122,1111122' 
CenGOOS,ioos:station:wmo:42067:1,2016-02-22T02:40Z,30.0430,-88.6490,5.0,3.4,172.1,4.1,'1111122,1111122,1111122' 
CenGOOS,ioos:station:wmo:42067:1,2016-02-22T05:40Z,30.0430,-88.6490,5.0,2.4,151.9,2.8,'1111122,1111122,1111122' 
CenGOOS,ioos:station:wmo:42067:1,2016-02-22T08:40Z,30.0430,-88.6490,5.0,4.5,186.9,5.4,'1111122,1111122,1111122' 
CenGOOS,ioos:station:wmo:42067:1,2016-02-22T11:40Z,30.0430,-88.6490,5.0,4.5,197.3,5.2,'1111122,1111122,1111122' 
CenGOOS,ioos:station:wmo:42067:1,2016-02-22T14:40Z,30.0430,-88.6490,5.0,3.1,174.3,3.6,'1111122,1111122,1111122' 
CenGOOS,ioos:station:wmo:42067:1,2016-02-22T20:40Z,30.0430,-88.6490,5.0,5.0,184.0,6.0,'1111122,1111122,1111122' 
CenGOOS,ioos:station:wmo:42067:1,2016-02-22T23:40Z,30.0430,-88.6490,5.0,5.3,171.7,6.1,'1111122,1111122,1111122' 
CenGOOS,ioos:station:wmo:42067:1,2016-02-23T02:40Z,30.0430,-88.6490,5.0,2.9,218.0,3.5,'1111122,1111122,1111122' 
CenGOOS,ioos:station:wmo:42067:1,2016-02-23T05:40Z,30.0430,-88.6490,5.0,2.1,162.1,3.1,'1111122,1111122,1111122' 
CenGOOS,ioos:station:wmo:42067:1,2016-02-23T08:40Z,30.0430,-88.6490,5.0,1.5,152.9,2.0,'1111122,1111122,1111122' 
CenGOOS,ioos:station:wmo:42067:1,2016-02-23T14:40Z,30.0430,-88.6490,5.0,5.5,167.9,6.4,'1111122,1111122,1111122' 
CenGOOS,ioos:station:wmo:42067:1,2016-02-23T20:40Z,30.0430,-88.6490,5.0,7.9,154.4,9.7,'1111122,1111122,1111122' 
CenGOOS,ioos:station:wmo:42067:1,2016-02-23T23:40Z,30.0430,-88.6490,5.0,12.1,174.7,15.3,'1111122,1111122,1111122' 
CenGOOS,ioos:station:wmo:42067:1,2016-02-24T02:40Z,30.0430,-88.6490,5.0,12.2,213.3,14.4,'1111122,1111122,1111122' 
CenGOOS,ioos:station:wmo:42067:1,2016-02-24T05:40Z,30.0430,-88.6490,5.0,12.5,235.7,16.8,'1111122,1111122,1111122' 
CenGOOS,ioos:station:wmo:42067:1,2016-02-24T08:40Z,30.0430,-88.6490,5.0,14.8,246.9,18.6,'1111122,1111122,1111122' 
CenGOOS,ioos:station:wmo:42067:1,2016-02-24T11:40Z,30.0430,-88.6490,5.0,15.1,247.9,17.7,'1111122,1111122,1111122' 
CenGOOS,ioos:station:wmo:42067:1,2016-02-24T14:40Z,30.0430,-88.6490,5.0,15.3,271.1,19.3,'1111122,1111122,1111122' 
CenGOOS,ioos:station:wmo:42067:1,2016-02-24T17:40Z,30.0430,-88.6490,5.0,13.3,277.9,17.1,'1111122,1111122,1111122' 
CenGOOS,ioos:station:wmo:42067:1,2016-02-24T20:40Z,30.0430,-88.6490,5.0,10.7,296.9,13.1,'1111122,1111122,1111122' 
CenGOOS,ioos:station:wmo:42067:1,2016-02-24T23:40Z,30.0430,-88.6490,5.0,8.6,312.7,10.5,'1111122,1111122,1111122' 
CenGOOS,ioos:station:wmo:42067:1,2016-02-25T02:40Z,30.0430,-88.6490,5.0,3.9,317.9,6.3,'1111122,1111122,1111122' 
CenGOOS,ioos:station:wmo:42067:1,2016-02-25T05:40Z,30.0430,-88.6490,5.0,8.3,316.3,10.8,'1111122,1111122,1111122' 
CenGOOS,ioos:station:wmo:42067:1,2016-02-25T08:40Z,30.0430,-88.6490,5.0,10.3,302.7,13.0,'1111122,1111122,1111122' 
CenGOOS,ioos:station:wmo:42067:1,2016-02-25T11:40Z,30.0430,-88.6490,5.0,5.6,308.0,7.4,'1111122,1111122,1111122' 
CenGOOS,ioos:station:wmo:42067:1,2016-02-25T14:40Z,30.0430,-88.6490,5.0,6.4,283.5,8.0,'1111122,1111122,1111122' 
CenGOOS,ioos:station:wmo:42067:1,2016-02-25T17:40Z,30.0430,-88.6490,5.0,6.4,250.5,8.4,'1111122,1111122,1111122' 
CenGOOS,ioos:station:wmo:42067:1,2016-02-25T20:40Z,30.0430,-88.6490,5.0,8.0,240.8,10.2,'1111122,1111122,1111122' 
CenGOOS,ioos:station:wmo:42067:1,2016-02-25T23:40Z,30.0430,-88.6490,5.0,9.5,236.3,11.5,'1111122,1111122,1111122' 
CenGOOS,ioos:station:wmo:42067:1,2016-02-26T02:40Z,30.0430,-88.6490,5.0,10.3,326.0,11.9,'1111122,1111122,1111122' 
CenGOOS,ioos:station:wmo:42067:1,2016-02-26T11:40Z,30.0430,-88.6490,5.0,8.3,8.0,10.8,'1111122,1111122,1111122' 
CenGOOS,ioos:station:wmo:42067:1,2016-02-26T14:40Z,30.0430,-88.6490,5.0,5.9,10.4,8.0,'1111122,1111122,1111122' 
CenGOOS,ioos:station:wmo:42067:1,2016-02-26T17:40Z,30.0430,-88.6490,5.0,3.7,5.5,5.2,'1111122,1111122,1111122' 
CenGOOS,ioos:station:wmo:42067:1,2016-02-26T20:40Z,30.0430,-88.6490,5.0,1.8,253.0,2.9,'1111122,1111122,1111122' 
CenGOOS,ioos:station:wmo:42067:1,2016-02-26T23:40Z,30.0430,-88.6490,5.0,5.6,254.2,7.1,'1111122,1111122,1111122' 
CenGOOS,ioos:station:wmo:42067:1,2016-02-27T02:40Z,30.0430,-88.6490,5.0,6.4,270.5,8.1,'1111122,1111122,1111122' 
CenGOOS,ioos:station:wmo:42067:1,2016-02-27T05:40Z,30.0430,-88.6490,5.0,4.6,321.6,5.6,'1111122,1111122,1111122' 
CenGOOS,ioos:station:wmo:42067:1,2016-02-28T11:40Z,30.0430,-88.6490,5.0,2.0,187.7,2.8,'1111122,1111122,1111122' 
CenGOOS,ioos:station:wmo:42067:1,2016-02-28T14:40Z,30.0430,-88.6490,5.0,2.8,178.2,4.4,'1111122,1111122,1111122' 
CenGOOS,ioos:station:wmo:42067:1,2016-02-28T20:40Z,30.0430,-88.6490,5.0,5.8,190.3,7.1,'1111122,1111122,1111122' 
CenGOOS,ioos:station:wmo:42067:1,2016-02-29T05:40Z,30.0430,-88.6490,5.0,2.6,197.0,3.2,'1111122,1111122,1111122' 
CenGOOS,ioos:station:wmo:42067:1,2016-02-29T11:40Z,30.0430,-88.6490,5.0,2.1,194.2,2.6,'1111122,1111122,1111122' 
CenGOOS,ioos:station:wmo:42067:1,2016-02-29T14:40Z,30.0430,-88.6490,5.0,1.8,175.4,2.1,'1111122,1111122,1111122' 
 
DISCLAIMER: The Gulf of Mexico Coastal and Ocean Observing (GCOOS) Data Portal aggregates data from the regional data providers for the convenience of all data users. Data published on this website should not be used for navigation or certain other uses as we cannot guarantee data accuracy or availability. The data and delivery services are provided 'as is' without warranty of any kind. Data Source: Gulf of Mexico Coastal Ocean Observing System Data Portal (http://data.gcoos.org/) 
